OneWeb SL0514

operational
NORAD ID: 54132 Int'l Des: 2022-138 Owner: ONEWEBN Country: UK Constellation: oneweb
LEOCIRCULARPOLARONEWEB_TYPE

About OneWeb SL0514

Description loading...

Live Position

Loading 3D Globe...

Upcoming Passes

Altitude History

Altitude vs Time

uPlot chart will show altitude changes over time

Two-Line Element Set

1 54132U 22138V 25354.01741520 -.00000065 00000-0 -19521-3 0 9994
2 54132 87.9207 340.6113 0001745 89.0585 271.0748 13.19724088153191
Epoch: Dec 20, 2025 • Age: 16 hours

Current Status

Altitude 1192.3 km
Velocity 7.26 km/s
Sub-Earth Point -15.15°S, 167.84°W
Launch Date Oct 22, 2022
Age 3.1 years
Type internet

Technical Details

Classification Payload
Mass 148.00 kg
Dry Mass 140.00 kg
Total Mass 148.00 kg
Length 1.30 m
Diameter 1.00 m
Span 5.00 m
Shape Trapezoid+2 pan
Manufacturer ONEWUS
Bus Type ARROW
Phase Status In Orbit
Owner/State ONEWEBN/UK

Large Constellations

Loading constellations...